Regional Weather Roundup
Issued by NWS

Home | Current Version | Previous Version | Graphics & Text | Print | Product List | Glossary On
Versions: 1 2 3 4 5 6 7 8 9 10 11 12 13 14 15 16 17 18 19 20 21 22 23 24 25 26 27 28 29 30 31 32 33 34 35 36 37 38 39 40 41 42 43 44 45 46 47 48 49 50
000
ASUS45 KSLC 242010
RWRUT

UTAH REGIONAL WEATHER ROUNDUP
NATIONAL WEATHER SERVICE SALT LAKE CITY UT
100 PM MST MON NOV 24 2014

UTZ001>011-023>025-242100-

NORTHERN UTAH

CITY           SKY/WX    TMP DP  RH WIND       PRES   REMARKS
HILL AFB       MOSUNNY   39  20  45 N6        30.34S WCI  35
LOGAN          SUNNY     39  21  48 CALM      30.34S
OGDEN          SUNNY     41  22  46 NW13      30.34S
PROVO AIRPORT  MOSUNNY   39  25  56 NW17      30.35S WCI  30
SALT LAKE CITY MOSUNNY   41  22  46 NW16      30.36S
VERNAL         MOSUNNY   40   9  28 N26G36    30.20R WCI  29
WENDOVER       SUNNY     46  12  25 N13G25    30.37F
HEBER CITY     CLOUDY    37  18  44 NE8       30.30S WCI  31

$$

UTZ012>022-026-027-242100-

SOUTHERN/CENTRAL UTAH

CITY           SKY/WX    TMP DP  RH WIND       PRES   REMARKS
BLANDING       MOSUNNY   40  10  28 NW21G32   30.25S WCI  31
BRYCE CANYON   SUNNY     32  13  45 NW28G36   30.26F WCI  18
CEDAR CITY     SUNNY     43  13  29 NE14G23   30.33F
DELTA          PTSUNNY   42  20  42 N17G28    30.37S
MILFORD        CLOUDY    43  19  38 N14G21    30.36
MOAB/CYNLANDS  SUNNY     46  14  27 NW24G32   30.19F
PRICE          SUNNY     36  14  40 NW28G38   30.22S WCI  23
ST GEORGE      PTCLDY    52  14  22 NW3       30.37F
KANAB          SUNNY     52   1  12 NW10G21   30.32F

$$

REGIONAL REPORTS     COLORADO/ARIZONA

CITY           SKY/WX    TMP DP  RH WIND       PRES   REMARKS
CRAIG, CO      PTSUNNY   34  18  52 N17G32    30.14R WCI  23
GRAND JUNCTION MOSUNNY   38  18  44 N7        30.19F WCI  33
RIFLE          LGT SNOW  26  23  88 SW7       30.18S FOG     WCI  18
MONTROSE       MOSUNNY   34  16  47 NW12G20   30.19F WCI  25
CORTEZ         PTSUNNY   38  11  32 NW20G28   30.15F WCI  28
PAGE, AZ       NOT AVBL
GRAND CANYON   SUNNY     43   3  19 N13G21    30.27S
KINGMAN        SUNNY     58   6  12 N17G24    30.32F
FLAGSTAFF      SUNNY     45  -1  14 NW18G32   30.25F

$$

REGIONAL REPORTS    NEVADA/IDAHO/WYOMING

CITY           SKY/WX    TMP DP  RH WIND       PRES   REMARKS
LAS VEGAS, NV  PTSUNNY   60  11  14 E10       30.32F
ELY            SUNNY     41  23  48 N14       30.39F
ELKO           SUNNY     41  22  46 SW12      30.44F
POCATELLO, ID  MOSUNNY   38  27  64 SW20      30.35S WCI  28
BURLEY         SUNNY     41  26  55 MISG      30.36F
EVANSTON, WY   MOSUNNY   29  13  51 NW20      30.24S WCI  16
ROCK SPRINGS   SUNNY     30  10  43 NW22G29   30.15R WCI  17
KEMMERER       SUNNY     28  14  54 W21       30.21R WCI  15

$$


USA.gov is the U.S. government's official web portal to all federal, state and local government web resources and services.